Theta_e
365 365 364 364 365 364 365 365 364 364 364 363 363 363 362 362 362 362 362 362 362 363 363 363 362 363 363 363 363 363 363 362 361 361 360 360 359 357 357 358 356 356 355 354 352 351 350 349 348 346 345 344 344 342 342 343 342 341 341 341 341 339 340 340 340 340 340 339 339 337 337 338 339 340 339 339 340 340 338 338 339 339 337 337 338
364 365 365 364 364 364 365 365 365 365 364 364 363 363 363 363 362 362 362 362 362 363 363 364 363 363 363 363 363 363 364 363 362 362 362 361 360 358 357 358 356 355 355 354 352 352 351 350 349 348 346 345 344 343 343 343 342 341 341 341 341 340 340 341 340 341 340 341 341 338 337 338 338 339 340 339 339 341 340 339 339 338 338 337 337
364 365 365 364 364 365 365 365 365 365 365 364 364 363 363 364 363 363 362 362 363 363 363 363 363 363 363 364 365 364 364 364 363 363 363 362 361 358 357 357 356 355 354 353 353 353 352 351 350 349 348 346 344 344 343 343 343 342 342 342 341 340 341 341 341 341 341 341 341 339 338 339 338 338 340 339 339 339 340 339 338 337 338 337 337
363 365 365 364 364 365 365 364 365 365 364 364 364 363 363 363 364 363 362 362 363 363 363 363 364 365 364 364 365 365 364 364 364 363 364 363 361 360 358 358 356 355 355 355 355 354 353 352 351 349 349 348 345 344 344 343 343 343 342 343 342 341 342 343 341 341 341 340 341 340 339 339 339 339 339 339 339 339 339 338 337 337 338 338 337
362 364 365 364 364 365 365 364 364 364 364 364 363 363 362 362 363 363 363 362 362 363 363 363 364 365 365 365 365 365 365 365 364 364 364 363 362 362 360 359 357 357 357 357 357 355 354 352 351 350 350 349 346 345 345 344 344 344 343 343 343 342 342 344 343 341 341 341 341 341 340 339 339 339 339 339 339 339 339 339 338 339 339 339 337
360 363 364 363 363 364 365 364 363 364 364 363 362 363 362 362 362 363 363 363 362 363 363 364 364 365 366 365 365 365 365 365 365 364 364 364 363 363 362 360 358 358 358 358 357 356 355 353 352 351 350 350 348 346 345 346 345 345 344 343 343 343 342 343 344 342 342 342 342 342 342 341 340 340 339 340 338 338 339 340 340 340 340 340 338
360 362 363 363 362 364 364 364 363 363 363 363 362 362 361 361 361 362 363 363 363 362 363 364 364 364 365 366 365 366 366 365 365 364 364 364 364 363 362 361 360 359 359 358 357 356 355 354 353 352 351 351 349 347 346 346 346 346 345 344 344 344 344 344 345 344 343 343 343 343 342 342 341 340 340 340 340 339 339 339 340 341 343 342 341
360 362 362 363 363 363 364 364 363 363 363 364 363 362 362 361 361 361 362 363 363 362 362 363 364 364 365 365 365 365 366 366 366 365 365 364 363 363 363 361 360 360 359 358 357 357 355 354 354 353 352 352 350 349 348 347 347 346 346 345 344 344 344 344 345 345 344 344 343 343 342 342 342 341 340 342 341 340 340 339 337 339 343 344 343
360 361 363 363 363 364 364 364 364 363 364 365 364 363 362 362 362 362 362 363 363 362 362 362 364 365 365 365 365 365 365 366 365 365 365 364 363 362 362 361 360 360 359 358 357 357 356 355 354 353 353 351 349 349 348 348 348 347 347 345 344 344 344 344 345 345 344 344 343 343 342 342 342 341 341 342 342 340 340 340 339 340 341 342 343
361 362 364 364 363 364 364 364 364 365 364 365 365 364 363 363 363 363 363 363 363 363 362 362 363 364 365 365 365 365 365 365 363 361 362 363 363 362 361 361 360 359 359 359 357 357 356 355 354 353 352 351 349 348 347 347 346 346 346 345 344 344 345 344 344 345 345 344 343 342 342 342 342 341 341 341 341 340 339 341 341 341 340 341 342
362 363 364 363 363 364 365 365 365 365 365 365 366 365 364 363 364 364 364 364 364 364 363 363 363 363 364 365 365 365 365 364 361 359 359 360 361 362 361 361 360 359 359 359 358 357 356 355 355 353 351 350 349 348 347 346 344 343 342 343 342 342 344 345 345 345 345 344 343 342 342 342 341 341 339 339 338 338 339 341 342 341 341 342 341
363 364 363 363 364 365 365 366 366 366 366 366 365 366 365 364 364 364 364 365 365 365 364 364 363 362 363 364 365 364 364 363 359 358 358 357 358 360 361 360 360 359 359 359 358 357 356 355 355 354 352 350 349 348 347 345 344 342 340 339 338 338 341 344 344 345 345 345 344 342 341 341 341 340 339 337 337 339 341 341 341 342 342 341 340
363 364 363 363 364 366 365 366 367 366 367 366 366 367 366 365 365 365 365 365 365 365 365 364 364 363 363 364 364 364 364 363 360 358 357 356 355 356 359 360 360 359 358 359 358 358 357 356 355 354 353 351 349 348 347 345 343 342 340 338 337 336 338 339 341 343 344 344 343 342 341 341 341 340 338 337 339 342 342 341 341 342 342 341 340
360 362 362 363 365 365 365 366 367 367 367 366 366 367 366 366 365 365 365 365 365 366 365 365 365 365 364 364 364 364 364 363 361 358 357 356 355 354 357 359 359 358 358 358 358 358 358 356 355 354 354 352 350 348 348 347 344 342 339 338 338 337 337 337 338 339 341 342 342 342 341 340 341 340 340 341 342 341 340 341 342 342 342 341 339
358 361 363 363 365 365 366 366 366 366 367 367 367 366 366 366 366 365 365 365 365 366 366 365 365 365 365 365 364 364 364 362 362 360 358 356 355 354 355 357 358 357 357 357 357 357 357 356 355 355 354 354 351 349 349 349 347 344 341 340 340 339 339 338 338 339 340 340 341 341 341 341 341 341 342 343 342 340 340 342 343 342 341 339 338
359 361 364 363 364 365 365 365 365 365 366 366 366 366 366 366 366 365 365 364 365 366 366 366 366 365 366 365 364 364 364 362 361 360 359 357 356 354 354 356 358 357 356 356 356 356 355 355 355 355 355 355 353 350 349 349 349 348 345 344 342 340 340 339 339 339 339 340 341 341 341 340 340 340 341 341 340 340 340 341 340 339 338 337 336
360 361 364 363 363 364 365 364 365 365 365 366 366 366 366 366 366 366 365 364 365 366 366 366 366 365 365 365 363 363 363 363 361 359 359 358 356 354 354 355 357 357 356 355 355 355 355 354 355 355 355 355 354 350 348 348 349 349 348 347 345 343 342 341 340 339 338 338 340 340 340 340 340 339 339 338 338 339 339 339 338 338 337 336 336
360 361 363 363 363 364 365 364 365 365 365 366 365 366 365 366 366 366 366 365 364 364 365 366 365 365 364 363 363 363 363 363 362 360 359 358 356 354 354 355 356 356 356 355 354 355 354 353 353 354 355 355 353 351 348 347 348 349 349 348 347 346 345 344 343 341 339 338 339 339 339 340 340 339 338 337 337 338 338 338 338 337 336 336 335
359 361 362 362 363 364 364 364 364 365 365 365 365 365 366 365 366 366 365 365 365 364 364 365 366 366 364 362 362 362 362 363 362 361 360 358 356 354 354 356 356 356 356 355 354 354 353 353 353 353 354 355 353 351 349 346 347 348 348 348 347 347 346 345 344 344 342 340 339 339 339 339 339 338 338 337 338 337 337 338 337 335 335 336 334
359 360 361 362 363 363 363 364 364 364 365 365 365 365 366 365 365 365 365 366 365 364 364 364 365 365 365 364 363 362 361 362 362 361 360 359 357 355 355 356 356 356 356 355 354 354 353 353 353 352 352 352 351 351 349 347 346 347 347 348 348 348 346 345 344 344 343 341 339 339 340 339 339 338 338 338 337 336 336 336 335 334 335 335 333
360 361 362 363 362 363 364 364 365 364 365 365 366 365 365 366 365 365 366 366 365 366 365 364 365 365 364 363 363 362 362 362 362 361 360 359 357 355 355 356 356 356 356 355 354 354 353 353 353 352 351 350 350 349 349 347 346 345 346 347 348 347 346 345 344 343 342 341 340 340 340 340 339 339 338 337 336 335 334 334 334 334 334 334 332
362 363 363 363 362 363 363 363 365 365 364 365 366 366 366 365 365 366 366 366 367 366 365 364 364 363 363 362 362 362 362 362 362 361 360 359 358 356 355 356 356 356 356 356 355 354 353 353 353 352 351 350 348 348 348 347 345 344 346 346 346 345 345 344 345 344 342 341 341 340 340 340 339 338 336 336 335 334 334 333 333 334 333 333 331
364 365 365 364 363 363 363 364 365 365 365 365 365 366 367 366 366 366 367 367 366 366 365 364 364 363 362 362 362 362 362 362 362 361 360 359 358 356 355 355 356 356 356 357 356 355 354 354 352 352 351 350 348 347 346 346 345 344 344 344 344 343 343 343 344 343 341 341 340 340 340 339 338 336 335 335 334 334 334 334 333 333 332 331 328
365 365 364 364 364 363 364 365 366 365 364 364 365 367 367 367 366 366 366 366 365 365 364 364 364 364 363 362 363 363 363 363 363 362 361 360 358 356 356 355 355 355 356 357 357 356 355 354 352 351 351 350 349 347 345 345 344 343 342 342 342 342 341 342 343 343 341 341 340 340 339 338 336 337 336 335 334 333 333 333 333 332 331 329 326
364 364 364 364 364 363 363 365 365 365 364 364 366 367 367 367 366 366 365 365 365 365 364 364 364 365 364 364 363 364 363 363 364 363 362 361 358 356 356 356 355 355 355 357 357 357 355 353 352 351 350 350 348 347 345 344 343 343 341 341 341 341 340 341 342 342 341 340 340 340 339 337 337 338 336 335 334 333 333 333 332 330 328 326 326
362 362 362 363 362 362 363 363 364 365 366 365 366 366 366 366 366 365 365 365 365 365 365 364 364 364 364 364 364 364 364 364 364 364 363 361 359 357 356 356 356 355 354 355 356 357 356 354 352 351 350 349 347 346 344 342 342 342 341 340 340 339 340 341 341 341 341 340 340 339 338 337 338 337 336 334 334 333 333 332 330 328 326 326 327
365 364 363 363 363 363 363 363 364 365 365 364 364 363 364 364 364 364 365 364 365 365 365 365 364 364 364 364 364 364 365 364 364 364 362 359 358 357 355 354 355 354 352 352 353 354 354 353 352 351 350 348 347 346 343 341 341 341 340 339 338 339 339 340 340 341 341 340 339 339 338 337 337 336 334 334 334 333 332 330 328 326 326 326 326
367 367 366 366 365 365 364 363 362 362 362 361 361 362 363 363 363 364 365 365 366 366 365 366 365 365 364 365 364 365 365 365 365 365 363 359 357 356 354 353 354 351 348 348 350 351 352 352 351 349 349 347 345 342 340 338 339 339 338 337 337 338 339 339 339 340 340 339 339 338 337 336 336 335 333 334 333 332 331 328 327 326 325 325 325
367 366 366 366 366 366 365 364 363 363 363 363 363 364 363 363 364 364 365 365 365 365 365 365 366 365 365 365 365 365 365 364 364 364 363 361 359 358 355 355 355 351 348 349 349 348 349 350 348 346 344 343 340 337 335 335 336 336 336 336 337 337 338 339 339 340 340 339 338 337 336 336 335 334 333 333 332 331 329 327 327 327 326 325 325
361 361 362 362 362 363 363 363 362 363 363 362 361 360 359 359 359 359 359 358 357 356 355 355 356 356 355 356 360 362 363 364 365 365 364 362 361 360 359 359 357 353 350 350 348 346 346 345 343 342 340 338 337 336 335 335 334 334 335 335 336 338 338 339 339 339 340 339 338 336 336 335 334 333 333 332 330 329 329 328 328 328 327 326 325
356 356 356 356 357 357 357 356 355 356 355 354 353 352 350 349 347 344 343 344 344 342 340 340 341 340 338 339 343 346 349 351 353 354 357 359 359 359 359 360 358 354 352 349 345 343 343 342 340 339 339 338 337 336 336 335 334 334 335 335 336 338 339 339 339 338 338 338 337 336 335 334 334 333 332 331 330 329 329 328 328 327 327 325 324
353 352 351 351 351 351 350 349 347 347 347 346 348 347 347 346 344 339 334 332 332 332 333 334 334 334 333 332 332 333 334 336 336 337 342 349 354 356 358 359 357 355 352 348 343 342 342 340 339 339 338 339 338 337 335 335 334 334 335 335 336 338 338 338 338 337 337 337 336 335 334 334 333 332 331 330 329 329 329 328 327 327 327 325 323
350 349 348 347 346 346 347 346 345 345 345 345 346 346 345 345 346 344 341 337 335 336 337 336 334 334 334 332 331 330 330 329 329 330 332 336 341 345 349 354 356 354 349 343 341 342 342 339 338 339 338 338 338 336 335 335 334 334 335 335 336 337 337 337 337 336 336 335 334 334 334 333 331 331 330 329 328 328 328 327 326 326 325 324 323
346 346 346 346 346 345 345 344 343 345 347 347 346 344 344 345 346 345 344 342 342 343 341 338 335 334 334 331 329 328 327 325 325 326 327 326 327 328 332 339 346 348 344 341 340 341 341 338 337 338 338 337 336 335 335 335 334 334 335 335 336 336 336 336 336 335 334 334 333 332 332 332 331 330 330 329 327 327 327 326 325 325 324 323 323
343 343 344 345 344 344 343 341 341 343 346 347 345 343 343 345 346 344 342 342 344 345 343 340 337 334 333 331 328 328 328 329 328 327 325 324 322 321 322 327 333 333 333 337 340 340 338 337 337 337 337 336 336 335 335 334 334 334 335 335 335 336 335 335 334 334 333 333 332 331 331 331 330 330 329 328 327 327 326 325 325 325 324 323 322
343 343 343 343 342 341 341 341 341 341 343 345 344 342 342 343 343 342 342 342 343 344 343 341 339 338 336 333 329 328 328 331 334 333 329 325 324 320 319 324 328 326 327 334 339 338 337 337 337 336 336 335 335 334 334 334 334 334 334 334 335 334 334 334 334 333 333 332 332 332 331 331 330 329 327 327 327 326 326 324 324 324 324 322 321
344 344 344 344 343 342 342 342 340 339 341 342 342 341 342 342 342 341 340 340 342 343 342 341 341 341 340 337 333 330 329 332 335 334 329 324 322 319 319 324 328 328 330 335 337 336 336 337 336 336 335 334 334 334 333 333 334 334 333 334 334 333 333 333 333 333 333 332 332 331 330 329 328 327 327 327 327 326 325 324 323 322 321 319 318
344 343 344 345 344 344 343 342 341 341 341 342 341 340 341 341 341 341 339 340 341 342 341 341 340 340 338 337 334 333 334 336 337 335 331 326 324 323 324 327 330 332 334 336 336 335 336 336 335 335 335 334 334 334 333 333 333 332 333 334 333 332 332 332 332 333 332 331 330 329 328 328 328 327 326 326 325 325 324 323 322 321 319 317 316
343 342 342 343 344 344 343 343 342 342 342 342 341 340 340 340 340 340 340 339 340 340 339 339 338 336 334 332 330 333 337 338 338 337 335 333 332 332 331 331 333 334 335 335 335 335 335 334 335 335 334 334 334 334 333 333 333 332 333 334 333 333 332 332 332 332 330 329 329 329 328 328 328 328 327 325 324 323 323 321 321 320 318 316 314
343 343 342 342 343 343 342 341 341 341 341 341 341 340 340 340 340 339 339 339 338 338 337 336 335 334 331 329 328 331 335 337 336 336 336 336 335 335 335 335 335 334 334 334 334 335 335 334 334 334 334 334 334 334 333 333 333 333 333 333 333 333 332 331 331 330 329 329 329 329 328 328 328 327 326 324 323 322 322 320 319 318 317 315 314
343 342 342 341 341 341 341 340 340 340 339 339 339 338 338 338 338 338 338 337 336 336 336 335 335 333 331 328 329 332 334 335 334 334 335 334 334 334 335 335 335 335 335 334 334 334 334 334 334 333 333 333 333 333 333 333 333 333 333 333 332 331 330 330 329 329 328 329 329 328 327 326 325 324 323 322 321 320 320 318 317 315 314 313 313
342 342 342 341 340 340 339 339 339 339 339 338 338 338 338 338 338 338 337 337 336 335 335 335 335 334 332 330 330 332 334 334 334 334 333 333 333 333 332 332 333 334 334 334 334 334 334 333 333 333 333 332 333 333 332 331 331 331 331 330 330 329 328 328 328 327 327 327 326 325 324 323 322 321 321 320 318 318 317 315 315 314 313 312 312
338 339 340 340 340 339 338 339 339 339 338 338 338 337 336 337 337 337 337 336 336 335 335 335 334 334 333 332 332 333 335 334 333 333 333 332 332 332 332 332 332 332 332 332 333 333 333 332 332 332 332 331 331 331 330 330 330 330 329 328 328 327 326 326 326 325 325 324 323 322 322 320 320 319 318 317 316 316 315 314 313 313 313 312 312
335 335 336 337 338 339 338 339 338 337 337 338 338 337 336 336 336 336 336 336 336 336 336 336 335 334 334 334 334 335 335 334 333 332 332 331 331 331 331 331 331 331 330 330 331 331 332 331 330 330 330 330 330 330 330 329 329 328 327 326 325 325 324 324 324 323 322 321 321 321 320 319 318 317 316 316 315 314 314 313 313 313 312 312 312
333 333 333 334 335 336 337 338 338 338 338 338 338 337 336 336 336 336 335 335 335 335 336 335 335 334 334 334 334 334 334 334 332 331 331 330 330 330 329 329 330 330 329 329 329 330 330 330 329 329 328 328 328 327 327 326 326 325 324 324 323 322 322 322 321 320 320 320 320 319 318 317 317 316 315 315 314 313 313 313 312 312 312 312 312
333 333 333 333 334 334 335 336 337 337 337 337 337 337 337 337 336 336 335 335 334 334 334 334 334 334 334 334 333 334 334 334 333 333 331 330 329 328 328 327 327 328 328 328 329 330 330 330 329 327 326 325 325 323 323 323 323 322 322 321 321 320 320 320 319 319 319 318 318 317 317 316 315 314 314 314 313 313 313 313 312 312 311 311 311
332 332 332 332 333 333 333 333 334 334 334 334 334 335 335 335 335 335 335 335 334 334 333 333 334 334 334 333 332 332 333 334 334 333 332 330 329 328 327 326 326 327 328 329 329 330 329 329 327 325 324 323 322 322 322 321 321 320 320 319 319 319 319 318 318 317 317 317 316 315 315 314 313 312 312 312 312 312 312 312 311 311 311 310 310
330 330 330 330 330 331 331 331 331 331 331 332 332 331 332 333 333 333 334 334 333 333 333 333 333 333 332 332 332 332 332 333 333 333 332 330 329 327 325 325 325 327 328 328 328 327 327 326 325 323 322 321 321 321 320 320 319 318 318 318 318 318 317 316 316 315 315 315 314 313 313 312 311 311 311 311 311 310 310 310 310 310 309 309 308
327 327 327 327 327 328 328 329 329 329 329 330 330 329 329 330 330 331 331 331 331 332 332 331 331 331 331 330 332 332 332 333 333 333 332 331 330 328 326 325 325 326 326 326 326 326 326 324 323 322 321 320 320 319 318 317 317 316 316 315 315 314 314 313 314 313 313 312 312 311 311 310 310 310 309 309 309 309 309 309 308 307 307 306 306
324 324 324 324 325 326 326 326 326 326 326 326 327 326 326 326 326 327 327 328 329 329 328 328 329 329 328 329 330 331 332 333 333 332 331 331 331 330 328 327 327 326 325 324 324 324 323 322 321 320 320 319 318 317 316 316 315 314 313 311 309 308 308 309 309 309 309 309 309 309 309 309 309 308 308 308 308 309 308 307 306 306 305 305 306
320 321 321 321 321 322 323 323 323 322 321 321 321 321 321 321 321 321 322 324 325 326 325 326 326 326 325 325 326 327 329 330 330 329 330 330 331 331 330 329 329 328 326 325 324 323 322 321 321 320 319 318 317 316 316 314 313 311 308 305 303 302 302 302 302 304 306 308 308 308 308 308 308 307 307 306 306 306 305 304 304 305 305 305 306
Wind_Speed
33 33 33 33 32 32 32 32 32 31 29 28 28 27 27 26 25 24 23 23 23 23 23 23 23 22 22 21 21 21 22 21 21 20 20 20 19 18 18 18 18 18 18 17 17 17 17 17 17 16 16 15 14 14 14 15 15 14 14 13 13 13 13 12 10 8 8 8 7 7 7 8 9 10 9 9 9 9 9 9 9 9 9 9 10
35 33 33 33 34 34 33 32 32 31 30 29 29 28 27 27 26 24 23 23 24 24 24 23 24 24 23 22 22 22 22 22 21 21 21 21 20 19 19 19 19 19 19 19 19 18 18 19 18 17 17 17 16 16 16 16 16 16 16 15 15 14 14 14 12 10 9 9 8 8 9 9 11 11 11 10 10 9 9 9 9 8 8 8 8
35 34 33 33 34 34 32 32 31 31 31 30 30 29 28 27 26 26 25 25 24 24 25 24 23 24 24 23 22 23 23 23 22 22 22 22 22 20 20 21 21 21 21 21 21 20 19 20 19 18 18 19 19 18 17 17 17 17 17 16 16 15 15 15 13 11 11 9 9 9 10 11 11 11 11 11 10 10 10 9 9 8 8 8 7
34 34 33 34 34 33 32 32 31 31 31 31 31 30 29 27 27 27 28 26 25 25 25 25 23 24 24 23 23 23 23 23 22 22 23 23 23 22 22 22 21 21 21 21 22 22 21 20 20 20 20 20 20 19 19 19 18 18 17 17 16 15 15 16 15 13 11 10 10 10 10 11 11 11 11 11 10 10 10 10 10 9 9 9 8
33 33 34 34 34 33 33 33 32 32 32 31 31 31 30 28 27 28 29 28 27 25 25 25 25 24 24 24 25 24 24 24 23 23 23 23 23 23 23 23 22 22 22 22 22 22 22 21 21 21 22 21 21 21 21 20 19 18 18 17 16 16 16 16 16 15 13 11 10 10 10 10 11 11 11 11 11 11 11 11 11 10 10 10 9
33 33 33 33 34 34 34 34 33 34 34 33 32 31 31 30 28 28 29 29 28 27 26 26 26 26 26 25 26 26 25 25 25 25 24 23 24 23 23 23 23 23 24 23 23 23 22 22 22 22 23 23 22 22 22 21 20 19 19 18 17 17 16 16 15 15 15 13 11 11 11 12 11 11 12 13 12 11 11 11 11 11 10 10 9
34 33 33 33 34 34 35 35 35 34 34 34 32 31 31 31 31 30 29 29 29 29 28 27 27 27 27 26 26 26 26 26 26 26 25 24 24 23 23 23 24 24 25 24 23 23 23 23 23 23 24 24 24 23 22 22 21 20 20 19 18 17 16 16 16 15 15 14 12 12 12 12 12 12 12 13 13 12 11 11 11 11 10 10 9
34 34 32 32 33 34 35 35 35 35 34 33 32 32 32 32 32 31 29 29 29 29 29 28 26 26 26 27 27 27 26 26 26 26 26 25 24 24 23 24 24 24 25 25 24 24 24 24 24 24 25 26 26 24 22 21 21 20 20 19 18 18 17 16 16 16 15 14 13 12 12 12 12 12 12 13 13 13 13 12 11 10 10 9 8
34 34 33 33 34 34 33 33 33 33 32 31 32 33 32 31 31 31 30 29 28 28 28 28 26 25 26 27 27 27 27 27 27 28 28 26 25 24 24 24 25 24 24 25 25 25 25 24 24 25 26 28 30 28 25 22 21 21 21 21 20 19 18 17 17 17 16 15 14 13 12 12 13 13 13 14 14 13 13 12 12 10 9 9 8
32 32 32 33 33 32 32 32 31 32 32 32 32 33 32 31 30 30 30 29 27 27 27 28 27 26 26 27 27 28 27 28 30 32 31 28 26 24 24 25 25 25 25 24 24 25 25 25 25 26 28 30 32 32 29 27 25 23 22 22 22 21 19 19 18 17 16 16 15 14 14 14 14 15 15 15 15 13 12 12 11 10 9 9 7
30 31 32 31 30 30 31 31 31 31 32 32 31 31 32 31 30 30 30 29 28 27 26 27 28 27 26 27 28 28 28 30 33 36 36 33 28 25 24 25 26 26 26 25 25 25 25 25 25 26 29 32 33 33 33 31 30 28 26 25 25 24 22 20 19 18 18 16 15 15 15 15 15 15 15 15 14 14 13 12 11 10 9 9 7
28 30 29 28 29 30 30 30 30 30 31 31 31 30 31 31 30 29 29 29 28 27 27 28 29 28 27 27 28 28 28 31 36 37 38 38 35 28 24 24 25 26 27 26 26 25 24 25 25 24 27 32 33 32 33 34 33 32 30 29 28 28 26 23 20 19 18 17 16 15 15 15 15 15 14 14 13 13 12 12 11 10 9 8 7
26 26 26 26 27 29 29 29 29 30 31 31 30 29 29 30 30 29 28 28 28 28 28 28 28 29 29 28 28 28 27 30 36 39 39 40 40 35 27 24 25 26 26 27 26 25 25 25 25 24 25 30 32 28 27 32 34 33 31 30 30 30 30 29 25 22 20 18 18 17 16 15 15 14 13 13 12 12 11 12 11 10 9 9 7
26 25 25 25 26 27 28 28 29 30 29 29 28 28 29 30 30 29 28 28 28 28 29 29 29 29 29 29 28 27 27 29 34 38 39 40 41 40 33 26 25 26 26 26 26 26 26 26 26 25 25 28 31 27 23 25 30 33 33 32 30 30 32 32 31 29 25 22 20 18 16 16 16 14 12 13 13 12 12 11 10 10 9 7 6
25 24 25 26 26 27 28 28 28 27 26 26 27 28 29 29 29 29 28 27 28 28 28 29 30 29 29 28 27 27 28 30 33 36 38 39 40 41 37 30 27 26 25 26 26 26 27 28 27 27 25 26 30 30 25 23 24 28 31 31 29 27 29 31 32 32 30 26 23 20 17 17 17 15 13 13 13 12 11 10 9 9 7 6 6
25 24 25 28 29 28 29 28 26 25 24 25 26 28 29 29 28 28 27 26 27 26 27 29 29 28 28 28 28 28 28 31 34 35 37 38 39 41 39 32 28 27 26 26 27 28 30 30 29 28 27 26 29 32 29 24 22 23 25 26 25 24 25 27 29 31 30 28 25 23 19 18 18 17 16 15 13 11 10 9 9 9 8 7 8
27 26 27 29 30 29 28 27 25 25 25 26 27 28 29 28 27 27 27 27 27 27 27 27 27 28 28 28 29 29 28 31 34 36 37 38 39 42 39 33 30 31 30 29 28 29 32 33 31 29 27 27 29 32 32 28 24 23 24 23 22 23 23 23 25 29 31 29 26 24 22 21 20 20 19 17 15 13 12 12 11 11 9 8 8
28 27 26 27 26 25 25 26 25 26 26 27 28 29 29 28 27 26 27 27 28 27 26 25 25 27 29 30 30 29 28 30 33 36 38 38 41 42 38 33 32 33 33 32 31 31 32 33 34 31 27 26 30 33 33 31 26 24 24 24 23 24 23 21 21 24 27 28 28 26 25 24 23 22 20 18 17 16 16 15 12 11 11 9 8
27 26 24 23 23 23 25 26 26 27 27 28 28 28 27 26 24 24 25 25 26 25 25 24 24 26 27 29 30 30 29 29 33 36 37 38 42 42 35 31 32 32 32 33 33 33 32 32 35 36 30 27 30 33 34 33 29 26 25 25 24 25 24 22 21 20 21 24 27 26 25 26 25 23 21 19 19 18 17 15 13 12 11 10 10
23 23 22 22 23 24 25 26 27 28 28 27 26 25 23 23 23 23 23 23 23 23 24 24 24 24 25 26 28 30 30 30 33 36 36 38 42 41 36 33 34 33 31 32 33 33 33 31 34 37 36 32 32 33 34 34 32 28 26 27 27 25 23 22 21 20 18 18 22 23 22 22 22 20 18 17 19 21 19 16 15 13 11 10 11
20 21 21 22 23 24 24 25 25 26 25 23 22 22 22 22 22 22 22 22 22 22 23 23 24 24 25 25 26 28 30 30 32 35 37 39 43 44 40 36 36 34 32 32 33 32 33 33 33 35 38 39 38 36 34 35 34 30 28 28 27 23 21 20 21 20 18 15 17 20 20 20 19 18 17 15 17 19 19 18 17 14 12 12 11
18 19 20 21 22 22 22 22 21 22 22 20 20 20 20 20 20 21 21 21 21 22 23 24 25 26 27 27 28 30 30 30 32 35 37 39 44 48 45 38 35 34 32 33 34 33 33 34 34 34 36 39 42 41 37 35 35 33 31 29 26 23 22 19 17 18 18 17 18 20 20 19 19 19 19 17 16 17 17 17 17 15 13 12 10
15 16 17 18 18 19 19 18 18 18 19 20 19 19 19 20 20 20 21 21 22 23 24 25 25 26 27 28 29 29 30 30 33 37 39 41 44 49 48 41 38 38 36 35 35 35 34 34 34 34 35 37 41 44 41 38 37 36 34 31 28 25 24 20 17 18 20 20 20 20 20 20 19 18 19 19 18 18 17 16 16 15 13 11 9
12 13 14 15 16 16 16 16 17 17 18 19 19 19 19 19 19 20 21 22 23 23 23 23 23 25 27 28 28 28 28 30 33 37 41 42 43 47 49 48 46 45 41 37 35 36 36 35 33 34 36 37 39 41 42 41 39 37 35 33 29 27 25 22 19 19 20 21 21 21 21 20 19 19 19 18 17 17 16 15 14 13 12 11 10
10 11 12 13 14 15 15 15 16 16 17 18 18 18 19 19 19 21 22 22 22 22 22 23 23 23 25 27 27 27 27 29 32 35 39 42 44 47 50 52 52 52 48 42 37 34 34 34 34 34 36 37 37 38 41 43 40 37 36 34 30 28 27 24 21 21 21 22 23 23 22 20 19 18 18 17 16 15 15 14 13 12 11 10 10
10 10 11 12 13 14 15 15 15 15 15 16 16 16 17 18 19 20 21 21 21 21 21 22 23 23 25 26 26 26 27 28 30 32 35 40 44 47 50 52 54 56 55 48 39 33 31 33 35 36 35 35 37 38 40 41 39 35 36 37 34 29 27 25 24 24 24 24 23 22 22 20 18 16 16 16 16 16 16 15 14 12 12 11 11
10 10 10 10 10 12 12 11 12 13 13 14 15 15 16 17 17 18 19 20 20 20 21 21 21 22 23 24 24 25 26 28 30 30 31 36 43 48 50 51 54 57 56 49 40 34 33 33 34 36 35 33 34 36 37 39 39 36 36 39 36 30 27 27 26 26 26 24 22 21 21 20 18 17 16 17 17 17 17 16 14 13 13 13 12
9 10 10 9 9 9 9 9 9 10 11 12 12 11 12 13 14 14 16 17 17 17 18 18 19 21 22 22 23 25 26 29 30 29 29 33 40 45 49 53 56 56 53 48 39 34 34 34 32 32 34 33 33 34 35 36 39 39 37 38 35 29 27 27 26 25 26 25 22 22 22 20 19 18 17 17 18 18 17 16 14 14 14 13 12
11 12 11 10 9 8 8 8 7 7 8 8 6 2 1 3 4 5 7 9 10 11 13 15 17 19 21 22 23 24 26 30 31 30 30 34 41 45 48 54 58 56 54 53 46 37 36 38 36 33 35 36 36 34 32 34 38 38 35 34 33 29 27 28 28 27 27 26 24 25 24 21 19 18 17 17 18 18 17 16 15 14 14 13 12
13 12 11 11 10 10 9 8 7 6 5 5 3 1 1 3 4 4 6 9 11 12 14 16 18 20 23 26 27 28 31 35 36 33 32 34 40 47 51 54 57 57 56 57 53 42 36 38 39 38 39 41 39 35 33 34 35 34 32 30 29 28 27 28 29 28 27 26 26 26 25 22 19 18 18 18 18 18 17 17 16 15 14 13 13
13 12 12 11 10 10 10 9 9 8 7 6 5 4 3 2 1 2 4 6 8 9 10 13 16 17 20 25 31 36 39 43 45 43 39 38 40 46 53 57 58 58 59 58 52 41 35 35 37 38 40 39 36 34 32 30 28 27 27 27 27 26 26 28 29 28 27 26 26 25 23 21 19 18 19 19 18 18 18 17 16 15 15 14 14
14 14 14 13 13 12 12 11 10 10 9 7 6 4 5 6 5 5 5 6 5 6 8 10 12 14 14 17 23 30 35 38 42 44 46 47 48 51 55 60 61 61 61 59 48 38 34 34 33 34 35 33 32 33 33 31 29 29 28 27 28 28 27 27 28 29 28 27 26 23 21 19 19 19 19 19 18 18 18 18 17 16 15 15 15
14 14 14 14 14 13 12 11 10 9 8 8 6 6 5 5 5 4 4 5 7 9 11 12 13 13 14 15 18 23 27 31 34 38 45 52 55 56 58 61 64 62 60 55 44 36 35 34 32 33 35 32 31 33 33 33 33 32 28 26 27 27 25 26 28 29 27 26 25 23 21 19 19 20 20 19 18 18 18 17 16 15 16 16 16
15 14 14 13 13 12 11 11 10 9 8 7 6 6 6 5 4 3 3 4 5 7 9 11 13 16 18 20 22 25 27 30 31 32 38 45 50 50 50 51 55 57 58 54 42 34 35 34 31 31 33 32 33 34 33 33 34 33 30 27 25 23 23 25 28 27 24 24 25 24 21 20 20 21 20 20 19 18 17 17 16 16 16 16 15
14 14 14 13 12 11 10 9 8 8 7 6 6 6 5 4 3 3 4 5 5 6 7 8 10 15 19 21 23 26 27 29 31 33 33 34 34 34 35 40 44 47 51 51 42 37 37 35 31 31 32 32 34 34 32 31 31 31 31 29 27 24 23 25 27 25 22 23 24 23 21 20 21 21 20 19 19 17 17 17 16 16 15 15 15
13 12 12 12 11 11 10 8 7 7 6 5 5 5 4 4 4 3 4 5 5 6 7 7 10 13 16 17 21 24 26 27 29 31 31 28 23 22 29 37 37 36 36 35 33 37 40 37 36 36 35 35 36 34 33 32 31 30 29 30 29 29 28 28 28 26 24 24 24 22 20 20 21 21 20 19 17 16 16 16 16 15 15 15 15
12 11 11 10 10 10 9 8 7 6 5 5 4 4 4 4 4 3 4 5 5 6 7 8 11 12 13 16 20 22 22 24 25 26 27 25 16 15 27 30 26 26 28 26 26 33 35 34 35 37 38 38 39 37 36 35 33 30 29 28 28 29 29 28 29 29 27 25 23 21 21 21 21 20 19 17 16 16 16 17 16 15 13 13 13
13 11 10 9 9 8 8 7 6 5 4 4 4 4 4 3 3 3 4 5 6 6 7 8 11 12 14 18 21 21 21 20 21 23 25 26 20 7 14 20 19 19 22 26 30 31 31 32 35 37 38 39 39 38 37 36 34 33 32 29 27 28 28 27 28 30 28 23 21 21 20 19 19 18 17 16 16 16 17 16 15 14 12 11 12
12 11 10 9 8 8 7 6 5 5 4 4 4 4 3 3 3 4 4 5 6 7 7 8 10 12 13 17 21 22 20 18 18 21 21 22 24 22 11 9 14 14 17 25 31 31 29 29 30 30 31 33 35 35 36 36 35 34 33 30 27 28 28 27 26 26 24 21 20 19 18 17 17 16 16 16 16 16 15 14 14 14 13 12 13
11 11 10 9 8 7 7 6 6 6 6 6 5 5 4 4 4 4 5 5 5 6 6 7 8 10 11 14 18 18 16 14 15 18 18 16 19 26 28 24 22 21 20 20 25 29 28 26 26 26 27 28 29 31 33 33 33 32 30 28 28 28 28 27 25 23 21 18 17 17 16 15 15 15 15 15 14 14 14 14 13 13 13 12 13
10 10 9 9 8 7 6 6 6 6 6 6 6 5 5 5 5 5 5 5 5 6 6 6 7 8 10 12 13 13 12 12 13 14 16 15 15 18 23 25 26 26 23 21 24 27 27 27 27 28 28 28 28 28 29 30 31 31 28 27 27 27 26 25 24 21 18 16 15 16 15 15 15 15 15 14 13 13 13 13 12 12 12 12 12
10 9 8 7 7 6 5 5 5 4 4 4 5 6 6 5 6 6 5 5 5 5 6 6 6 7 8 9 10 11 10 10 11 12 13 12 12 13 15 17 21 24 24 24 26 28 28 28 28 28 28 28 28 29 29 29 29 29 28 27 26 25 24 22 21 19 17 16 15 15 15 15 15 14 14 13 13 12 12 12 12 12 12 13 13
10 9 8 7 6 6 5 5 4 4 4 5 4 5 5 5 5 6 6 6 5 5 6 6 6 7 8 9 9 9 8 8 9 10 10 10 10 10 10 11 13 15 18 21 24 27 29 29 29 28 27 28 28 29 30 30 30 29 27 26 25 24 22 20 20 18 17 16 15 15 15 15 14 13 13 13 12 12 12 12 12 12 12 13 13
8 7 7 7 6 6 6 5 5 5 4 3 2 3 4 4 4 5 6 6 6 6 6 6 6 7 7 8 8 7 6 6 6 7 8 8 8 8 8 7 8 10 14 17 20 23 26 27 27 26 25 25 25 26 27 27 27 26 24 23 22 21 20 19 18 17 16 15 15 15 14 14 13 13 12 12 12 11 12 13 13 13 12 13 12
8 7 7 6 6 6 6 6 6 6 5 4 4 5 5 5 5 5 6 6 6 7 6 6 6 7 7 7 7 6 5 4 4 5 6 6 7 7 6 6 7 8 11 15 20 22 24 25 25 25 24 23 24 24 23 22 22 21 21 21 22 20 18 18 17 16 15 15 15 14 14 13 12 12 12 12 12 12 12 13 13 13 12 13 12
11 10 10 9 8 8 8 7 8 8 8 8 8 8 7 7 7 7 7 7 6 6 6 6 6 6 6 6 6 6 5 4 3 4 5 5 6 5 5 6 7 8 12 16 20 22 23 24 25 26 25 24 24 24 22 20 20 19 19 19 20 18 17 16 15 15 14 14 13 13 13 12 12 12 11 11 12 12 12 12 13 13 13 13 12
14 13 12 11 11 10 10 9 9 9 9 9 9 9 9 8 8 8 8 7 7 7 7 7 7 6 5 5 5 5 5 4 2 3 4 5 6 6 6 8 10 12 15 17 19 21 23 25 26 26 26 25 24 23 21 20 20 19 18 17 17 17 16 16 15 14 13 12 12 12 12 11 11 12 12 12 12 12 12 12 12 12 12 12 12
15 15 14 13 12 12 11 11 10 10 10 10 11 11 10 10 10 10 10 9 9 9 9 8 7 6 5 4 4 4 4 3 2 2 4 5 7 7 9 11 15 17 17 17 19 21 25 27 27 27 25 25 24 22 21 20 19 18 17 17 16 16 16 16 14 13 12 12 11 11 11 11 11 11 12 12 12 12 12 12 11 11 12 12 12
16 15 14 14 14 13 13 13 13 13 13 13 13 13 12 12 12 12 12 11 11 11 10 9 8 6 5 5 4 3 3 1 1 2 3 5 8 9 11 14 16 17 18 19 21 24 25 26 27 26 25 24 23 22 21 19 18 16 16 16 15 15 16 16 14 13 13 12 11 11 11 11 10 11 11 12 12 11 11 11 11 11 12 12 12
16 16 15 15 15 14 14 15 15 15 15 15 14 15 15 14 14 15 15 14 13 12 11 9 8 7 5 5 5 4 4 2 2 3 4 6 8 9 11 13 14 13 15 17 20 21 23 24 24 24 23 22 21 20 18 16 15 14 14 14 14 14 15 15 15 15 14 12 11 11 11 10 10 10 10 11 11 10 10 10 10 11 11 11 11
17 17 16 16 16 15 15 15 15 16 16 16 16 16 16 16 16 17 17 15 14 13 11 10 8 7 6 5 5 6 6 6 5 5 4 6 8 9 10 11 12 12 14 15 16 18 19 20 19 19 19 19 17 15 14 13 13 13 14 15 15 15 16 16 16 17 15 13 11 11 10 9 9 9 9 9 10 10 10 10 10 10 10 11 11
Wind_Direction
195 196 197 198 200 201 203 206 208 209 210 210 211 214 215 215 216 216 214 213 213 212 212 211 210 211 212 213 211 210 210 209 207 205 205 206 207 211 212 207 211 217 215 214 212 204 201 205 206 206 207 209 212 211 208 208 208 209 210 208 210 212 210 213 221 224 219 217 226 235 219 209 215 218 221 227 234 241 237 230 236 246 250 253 258
195 196 196 198 200 202 203 205 206 208 208 210 211 213 214 215 215 214 213 213 213 213 213 212 211 210 211 212 210 210 210 209 207 204 204 204 202 204 208 206 209 216 215 215 214 207 203 206 207 205 207 210 212 212 210 208 208 208 208 207 208 209 209 212 218 224 224 214 214 220 211 210 219 216 216 225 227 228 229 227 230 233 237 247 257
195 195 195 198 200 201 202 203 204 205 207 209 211 212 213 213 213 213 213 215 214 214 214 213 211 210 210 210 209 209 209 209 208 206 204 204 201 200 202 204 208 214 215 215 214 210 206 207 208 206 207 210 213 213 212 210 209 209 208 208 209 208 207 210 216 221 226 218 208 209 207 209 218 217 215 220 221 221 224 227 229 230 233 241 252
195 193 194 198 199 199 201 202 204 205 207 209 210 212 213 213 212 213 215 216 215 214 215 214 211 209 209 209 208 208 209 209 209 208 206 205 204 202 199 199 203 209 213 213 212 210 208 208 209 209 208 210 213 213 214 212 210 209 210 209 210 210 207 209 214 218 224 222 211 208 208 209 216 219 216 216 217 220 224 227 231 234 237 240 248
195 194 196 198 198 199 201 202 205 206 208 210 211 212 213 213 213 213 215 216 215 214 214 214 211 208 208 208 209 209 208 208 208 209 209 207 206 204 201 199 200 205 210 211 210 210 210 211 211 210 209 210 212 214 214 212 210 208 209 209 210 212 209 208 211 214 218 221 215 210 210 212 215 216 214 215 217 219 224 228 233 237 240 245 253
196 196 197 198 199 199 200 202 205 206 208 211 212 212 213 213 213 213 214 215 214 214 214 213 211 210 209 208 209 210 210 208 209 210 210 209 208 206 204 202 203 206 210 212 212 211 212 214 213 211 210 211 213 215 215 212 210 208 207 209 210 211 211 209 208 210 214 220 219 215 213 213 213 213 213 216 220 221 223 226 232 235 237 243 254
195 196 197 199 200 200 200 202 204 206 208 210 211 212 213 213 213 213 214 214 214 214 213 212 211 210 210 210 210 211 210 210 210 210 211 210 208 207 205 203 204 209 213 215 214 213 214 216 216 214 212 213 215 217 215 211 211 210 208 208 210 211 211 210 210 210 212 218 220 220 219 216 216 218 215 214 221 226 226 227 230 229 226 231 242
193 194 196 198 199 200 200 202 203 205 206 207 208 210 212 213 213 213 213 213 214 214 213 212 211 209 210 211 211 211 211 210 210 210 211 211 209 208 206 204 205 210 214 217 215 215 216 217 219 218 214 215 218 218 215 211 209 209 208 206 209 213 214 213 213 213 214 217 220 221 221 218 217 220 215 209 216 223 224 227 231 227 218 217 226
192 193 194 197 198 198 198 200 202 204 204 205 206 209 211 212 212 213 213 214 215 215 214 213 210 208 209 210 211 212 212 211 211 211 211 210 208 208 207 206 208 211 214 217 216 216 216 218 221 221 218 220 225 223 218 212 207 204 204 204 206 211 216 217 216 216 216 217 219 220 222 221 218 217 213 210 215 222 223 224 228 225 221 223 223
192 192 194 196 196 194 194 198 200 201 202 203 205 207 209 210 211 212 212 213 214 214 213 213 212 210 209 209 210 211 212 213 216 217 215 210 207 207 208 207 210 213 214 215 216 216 216 218 221 223 223 227 232 231 224 217 214 210 204 204 206 208 213 217 218 217 218 218 219 218 220 223 221 217 218 218 219 224 224 221 224 224 224 232 229
193 194 196 195 192 190 193 196 198 199 201 202 203 205 207 209 210 211 211 212 213 213 212 213 214 213 212 211 211 212 213 216 221 222 220 216 210 206 208 209 210 213 215 216 217 217 215 216 220 223 225 229 234 235 229 223 223 223 218 213 214 212 211 213 217 218 219 220 220 219 221 225 224 220 223 226 225 227 226 222 224 227 226 233 235
196 197 197 193 189 191 194 196 197 198 199 201 202 203 205 207 208 209 210 211 212 213 213 213 215 215 215 214 214 214 216 220 224 225 223 221 216 210 209 210 211 214 217 217 218 218 214 213 216 219 223 228 231 232 231 228 227 229 228 226 225 223 217 214 216 218 221 223 221 220 223 228 228 224 225 232 231 224 223 224 228 233 232 239 244
200 200 198 193 192 195 196 196 197 198 199 200 200 201 203 206 208 209 210 211 212 213 214 215 215 216 216 217 217 218 218 222 226 227 224 223 221 216 212 212 212 215 218 219 219 218 213 211 213 214 220 229 230 224 225 228 229 230 231 231 230 230 227 223 222 222 224 228 228 226 225 227 230 228 228 232 227 216 219 227 228 229 232 243 248
200 200 198 197 197 199 199 200 200 200 199 198 199 202 205 207 209 211 211 212 213 214 215 216 217 217 217 217 219 221 221 222 227 228 226 225 224 220 215 213 215 217 220 221 221 219 214 209 211 213 216 225 229 220 212 217 224 227 228 229 229 230 231 230 228 228 229 232 234 231 227 227 230 231 226 221 216 219 229 232 228 227 227 232 235
198 197 195 197 199 200 202 203 203 201 199 199 200 205 209 210 210 212 214 214 215 216 217 218 218 218 218 217 220 224 225 224 227 229 227 226 224 222 217 215 218 219 220 223 224 224 221 214 213 215 214 218 225 221 209 204 211 218 221 223 224 225 228 228 228 227 228 231 234 232 227 226 228 229 223 214 214 224 231 227 223 222 216 218 236
196 196 194 196 198 199 201 202 202 201 200 201 204 208 211 213 212 212 214 217 218 218 219 220 220 219 218 218 221 227 230 228 226 227 228 226 223 220 217 216 219 221 221 223 225 228 227 222 218 217 214 215 223 225 216 204 204 212 215 217 219 222 225 226 226 225 224 225 229 229 226 225 226 226 223 220 223 222 218 219 217 213 211 222 239
196 198 198 198 198 199 199 199 200 201 201 202 207 210 213 214 213 211 213 216 218 219 220 221 221 220 220 221 223 228 232 231 229 227 226 224 220 216 214 213 218 224 225 225 224 226 227 225 223 220 215 213 220 227 222 210 206 214 217 216 218 222 225 227 227 227 226 225 225 225 224 222 224 229 230 233 235 224 217 226 221 206 204 211 223
199 201 202 200 198 196 197 198 199 201 203 205 209 212 213 214 213 211 213 217 219 221 222 223 223 222 222 223 224 227 231 233 232 228 225 223 219 214 210 209 214 220 224 225 225 226 226 225 225 223 218 213 219 227 224 214 207 213 219 221 223 226 227 226 224 223 224 226 224 222 221 220 223 231 234 237 240 230 225 229 218 198 198 205 215
201 202 202 199 196 196 197 199 201 202 205 208 211 213 214 215 215 213 216 219 222 224 224 225 226 225 226 226 226 227 230 233 234 230 225 223 219 212 208 210 213 216 220 223 225 227 228 227 227 226 222 216 220 226 225 217 208 209 217 223 225 226 226 225 220 209 207 216 220 218 218 220 223 229 232 235 237 232 225 222 209 196 197 208 221
199 200 199 196 197 199 200 202 202 205 207 209 212 214 214 216 216 216 219 222 224 226 226 228 229 229 229 229 228 229 230 231 234 233 228 224 220 212 208 214 218 217 219 222 224 225 225 225 227 229 226 220 221 224 224 219 212 207 212 221 224 224 221 222 221 207 192 203 216 216 214 215 217 220 222 227 230 227 221 214 206 199 200 216 231
194 194 194 196 200 201 203 204 205 208 210 210 211 213 214 216 217 218 221 223 224 225 226 229 233 233 234 235 234 235 234 231 234 235 231 225 220 214 210 215 220 219 218 221 223 224 224 222 224 228 226 221 221 222 222 220 216 210 210 216 220 220 215 216 220 208 191 195 211 213 209 206 207 208 208 212 218 218 216 214 208 203 209 225 235
189 190 192 198 201 202 204 206 207 209 210 208 210 212 213 215 217 219 222 223 224 227 229 233 238 241 242 241 239 239 238 235 235 236 232 227 222 217 213 214 216 216 217 221 222 222 221 219 219 224 225 221 220 220 220 219 217 213 211 212 214 213 209 208 208 201 195 201 208 208 203 197 198 204 205 206 209 208 208 211 208 203 210 224 232
184 188 193 197 200 202 204 205 204 205 206 206 209 212 213 214 216 219 223 227 231 234 235 236 239 243 244 244 242 240 238 236 235 235 234 231 227 221 217 216 215 214 216 220 220 219 219 216 214 217 222 221 218 218 218 218 215 213 212 211 209 206 201 200 196 192 198 207 208 204 200 195 195 201 202 201 203 201 199 202 203 203 209 217 222
177 186 192 194 195 197 200 201 202 204 207 209 211 214 214 215 218 223 227 231 236 239 239 239 240 242 245 247 246 243 239 237 236 236 234 232 228 222 219 219 217 215 216 220 219 217 218 216 212 212 216 218 217 216 216 216 214 212 210 208 206 201 197 195 193 190 195 205 204 200 198 197 197 200 198 195 195 193 192 196 200 204 207 209 211
175 183 189 191 193 196 198 200 204 207 209 210 211 215 217 218 222 227 230 233 235 239 241 241 241 243 245 248 249 247 242 240 239 238 237 233 229 224 222 221 220 218 218 221 220 218 217 215 211 210 212 215 214 212 213 214 213 210 207 204 201 198 196 196 196 194 197 202 201 198 197 197 197 197 193 188 186 188 192 195 197 198 198 198 203
174 180 188 191 194 198 200 202 205 206 209 211 215 221 225 226 229 232 233 234 236 240 243 244 244 246 248 252 253 252 248 245 243 242 238 233 229 227 225 224 223 223 222 223 223 221 219 215 211 210 209 210 210 208 208 210 209 207 206 203 200 197 196 197 199 199 200 201 198 195 196 195 191 187 184 184 186 192 196 193 189 189 190 191 199
162 168 175 178 182 188 192 196 198 199 205 213 221 226 228 232 235 236 236 239 241 242 243 244 245 248 250 253 255 254 252 249 247 245 239 230 226 226 225 224 225 224 224 224 224 224 220 215 213 210 207 207 208 207 206 205 203 202 203 203 201 197 195 199 202 200 199 198 195 194 195 189 178 173 179 187 192 195 194 190 186 186 188 192 200
136 142 148 151 156 168 174 177 187 195 201 209 218 223 224 227 233 235 236 240 243 248 250 249 250 252 254 255 256 255 253 250 246 244 238 229 224 222 221 222 224 223 221 221 221 222 220 217 213 207 199 197 197 198 197 197 198 199 200 200 199 196 194 198 202 201 197 195 192 193 192 183 173 171 178 189 195 195 191 187 188 188 188 193 201
116 120 124 125 124 129 139 150 168 186 193 194 201 218 224 226 241 246 242 244 253 263 267 264 263 266 267 266 264 262 259 255 253 251 244 235 229 224 222 224 224 222 220 218 216 213 211 207 201 193 188 186 185 185 186 189 192 194 195 196 195 195 194 197 199 199 194 191 190 191 187 179 171 172 181 191 194 192 187 184 186 188 189 196 205
120 118 119 118 118 121 122 123 129 137 142 147 141 77 343 286 283 278 265 266 270 273 276 276 275 278 279 276 272 270 267 265 264 263 258 249 239 231 230 230 228 223 219 216 212 207 202 196 189 185 183 181 180 180 181 183 185 186 188 190 191 192 193 196 198 196 191 189 190 189 185 178 172 175 187 194 190 187 185 183 185 188 190 199 214
116 114 112 109 108 113 115 110 111 115 115 119 130 139 151 174 222 274 279 281 281 284 291 292 286 284 285 283 278 274 272 270 269 269 267 263 253 242 236 233 229 223 218 213 208 203 198 192 185 181 182 181 179 178 178 177 175 175 177 183 188 191 193 195 196 194 190 189 191 190 184 176 171 177 188 189 183 184 187 185 185 189 194 205 222
103 102 103 99 94 97 102 101 102 106 106 107 114 119 122 123 108 73 53 44 25 358 342 330 315 307 307 302 293 287 283 281 279 275 269 263 258 251 243 234 228 222 215 209 204 198 194 193 187 182 182 182 177 173 171 169 168 169 172 179 184 189 194 195 194 193 191 190 190 190 185 176 172 180 188 186 180 184 188 188 188 191 198 213 229
89 91 94 94 90 90 93 92 92 93 91 88 84 75 75 89 89 69 51 35 21 12 5 0 358 356 351 344 333 321 311 304 295 282 271 262 257 255 248 237 229 221 212 204 199 192 188 191 192 185 179 177 172 168 167 167 166 166 171 177 180 184 191 195 196 196 195 192 191 191 185 176 175 182 188 187 183 183 186 190 193 195 204 220 231
83 84 88 91 91 89 88 87 85 84 80 78 78 77 75 69 61 54 26 353 356 4 360 358 8 15 10 3 358 351 340 330 320 306 290 276 267 264 258 244 232 221 209 202 198 189 182 186 188 182 174 169 165 164 165 165 164 164 168 174 178 180 185 193 197 199 198 197 197 192 183 176 178 184 187 187 186 185 187 193 199 204 213 224 231
87 84 83 85 87 87 85 83 81 79 77 77 74 73 75 72 60 51 24 358 352 356 350 343 351 5 7 3 359 360 359 354 348 340 323 300 281 272 259 242 228 217 207 202 195 181 172 174 175 171 167 164 162 161 161 161 162 165 166 168 172 177 182 189 195 199 200 200 199 191 181 178 182 185 187 186 185 185 190 197 202 205 211 221 230
89 85 80 76 78 81 78 75 73 68 61 63 62 55 51 48 40 30 15 0 346 345 349 337 330 342 354 355 356 4 11 9 1 354 340 321 297 264 238 226 217 207 203 201 187 170 166 168 169 166 163 160 158 157 157 159 163 167 167 166 170 176 180 185 192 198 201 200 196 187 178 179 183 185 186 186 184 187 196 203 204 204 209 221 230
73 74 73 68 71 76 75 68 65 59 50 48 50 49 45 42 34 15 7 2 347 338 346 344 334 334 340 346 351 358 4 7 8 6 360 352 333 261 231 222 209 198 195 186 166 158 163 166 165 161 159 157 157 157 158 162 164 165 164 166 171 176 177 182 191 197 198 195 190 182 178 181 184 185 184 184 184 191 203 210 210 210 212 219 222
63 65 65 60 61 71 75 69 59 53 51 49 46 43 40 39 33 12 357 354 344 337 342 348 347 343 339 340 342 339 337 349 11 25 30 32 30 347 239 214 193 182 177 163 150 150 156 159 158 158 157 157 158 158 158 160 161 161 162 165 170 175 179 185 192 196 195 190 183 179 178 180 182 182 183 186 191 199 208 212 213 209 201 199 210
70 70 69 64 62 67 70 66 54 41 38 38 36 33 25 18 16 2 346 341 342 344 346 345 343 342 340 338 339 337 336 348 11 29 42 54 55 48 57 138 148 136 137 143 143 143 145 147 149 152 154 155 156 157 157 158 160 161 163 165 168 174 181 186 189 190 188 183 177 175 177 179 178 178 185 193 198 202 204 205 205 202 194 195 210
82 79 74 69 69 69 65 59 49 38 29 23 20 19 12 359 352 347 344 344 341 340 341 338 334 336 342 344 344 345 352 1 11 20 29 41 54 62 71 86 97 97 100 115 124 129 134 137 138 142 148 152 155 155 156 157 157 158 160 163 166 169 174 178 180 181 179 175 172 172 175 175 173 174 180 187 189 191 192 194 195 195 195 199 206
84 85 82 74 69 66 59 52 47 41 32 21 14 12 7 355 343 336 336 338 333 327 328 329 329 332 339 348 354 2 10 13 15 22 26 25 33 58 78 94 107 114 117 117 118 125 132 137 141 146 151 153 153 154 155 156 155 155 156 160 162 164 167 171 173 172 169 168 167 168 168 168 168 171 175 177 179 180 184 189 192 191 195 203 205
72 75 77 70 62 58 52 48 49 47 33 22 16 11 3 352 342 337 331 325 322 322 320 319 324 331 334 344 3 19 23 21 21 28 34 33 33 47 69 92 111 125 133 136 137 138 140 142 146 151 152 152 154 155 156 155 154 155 157 160 161 162 162 164 164 163 163 163 163 163 162 164 167 171 173 174 176 179 182 188 191 189 193 203 207
65 63 61 58 54 52 48 44 45 45 35 30 25 15 4 353 343 340 335 326 318 315 315 316 321 327 330 338 354 9 18 24 28 31 34 39 45 53 66 84 105 121 131 137 142 145 146 148 151 154 155 157 159 159 158 158 157 156 157 158 158 157 155 155 156 158 158 159 159 160 162 164 168 172 172 172 175 181 186 190 191 189 194 202 205
56 55 56 54 47 44 42 34 31 31 26 21 18 8 358 351 347 340 334 330 324 316 315 323 325 321 323 332 339 345 360 21 36 44 45 44 47 53 60 73 97 116 126 133 141 146 147 146 147 149 152 156 157 156 155 155 154 154 153 152 151 150 148 148 151 154 155 156 158 160 162 165 169 173 173 174 179 186 188 189 190 191 196 203 208
42 39 40 39 32 30 30 22 16 13 4 352 353 354 345 341 344 337 327 327 328 321 319 328 329 320 322 331 334 334 344 11 42 60 63 59 56 57 63 77 94 108 120 129 136 141 142 143 144 145 145 145 145 144 142 142 144 145 145 145 145 144 143 145 148 151 154 157 160 162 166 169 173 176 177 178 184 189 189 189 191 195 200 207 214
46 41 36 33 29 26 22 18 15 13 9 3 359 355 350 345 343 336 328 326 323 318 316 316 315 315 321 330 332 333 337 349 35 69 78 80 79 79 86 98 106 117 131 137 141 144 146 146 145 143 140 138 137 135 133 134 134 133 136 142 144 141 139 141 146 150 154 159 164 168 171 172 174 178 178 179 183 188 189 190 192 196 202 211 219
48 45 38 33 31 27 23 21 18 16 16 13 6 359 354 348 339 333 330 327 318 310 307 306 308 316 325 328 325 326 328 333 10 59 71 81 93 104 115 120 124 133 139 142 143 146 147 147 145 141 137 135 135 132 129 130 132 132 134 139 140 139 139 142 145 151 157 162 165 168 171 172 175 176 176 177 182 187 190 191 193 197 204 214 222
49 46 40 34 30 23 18 17 17 16 17 18 14 7 0 352 344 340 338 335 328 320 316 315 317 320 321 316 311 311 318 328 357 44 66 83 96 106 115 123 130 136 138 138 140 144 145 146 147 146 143 142 143 140 134 132 132 134 136 139 142 148 152 150 146 149 156 160 162 166 169 172 172 172 173 178 183 186 189 193 198 204 209 216 219
49 48 45 40 37 30 23 20 20 19 18 16 15 14 9 2 357 352 348 345 341 337 334 331 326 321 318 315 307 299 299 321 42 64 78 99 108 111 115 122 127 130 132 135 141 146 147 147 147 148 148 149 151 149 146 141 136 137 144 152 158 164 164 158 154 156 158 159 161 164 167 169 170 170 173 180 186 190 194 199 204 208 211 212 212
48 47 46 43 40 38 34 30 28 26 21 17 16 16 14 12 10 6 359 353 350 350 352 349 341 334 333 331 327 332 342 6 81 93 96 109 116 116 119 123 125 126 129 133 139 145 147 147 147 146 147 149 150 149 148 144 138 141 155 164 166 168 171 171 170 167 161 156 157 161 162 164 168 171 174 182 190 196 200 203 205 206 207 208 207
47 46 46 43 39 37 37 34 32 30 26 22 20 19 18 17 17 14 10 6 3 3 5 2 354 350 353 353 347 350 4 30 62 77 87 108 115 117 122 125 127 129 131 132 137 143 146 145 144 143 143 145 145 143 141 141 143 150 160 162 161 163 167 169 167 162 155 149 152 158 159 162 169 174 179 187 194 198 202 204 205 208 210 210 208